Tracking 19575 objects as of 19-Feb-2019
HD Live streaming from Space Station
objects crossing your sky now

METEOR 2-5 DEB

Track METEOR 2-5 DEB now!
10-day predictions


NORAD ID: 35257
Int'l Code: 1979-095Y
Perigee: 788.8 km
Apogee: 808.3 km
Inclination: 81.2 °
Period: 100.7 minutes
Semi major axis: 7169 km
RCS: 0.0116 m2 (small)
Launch date: October 31, 1979
Source: Commonwealth of Independent States (former USSR) (CIS)
Launch site: PLESETSK MISSILE AND SPACE COMPLEX (PKMTR)

Note: This is SATELLITE DEBRIS
aabbcc
Your satellite tracking list
Your tracking list is empty




NASA's NSSDC Master Catalog

Two Line Element Set (TLE):
1 35257U 79095Y   19043.24184093  .00001470  00000-0  56354-3 0  9998
2 35257  81.1949 237.7403 0013580  65.7285 294.5314 14.30091416541504
Source of the keplerian elements: AFSPC